Starlink 4776

operational
NORAD ID: 53837 Int'l Des: 2022-114 Owner: SPXS Country: US Constellation: starlink
LEOCIRCULAR

Starlink 4776について

説明を読み込み中...

リアルタイム位置

3D地球を読み込み中...

次回通過

高度履歴

Altitude vs Time

uPlot chart will show altitude changes over time

軌道要素

1 53837U 22114V 25306.29773885 .00000868 00000-0 72656-4 0 9993
2 53837 53.2154 155.7143 0001426 92.5371 267.5785 15.08835951173606
Epoch: Nov 2, 2025 • Age: 26 hours

現在のステータス

高度 541.6 km
速度 7.59 km/s
衛星直下点 -5.79°S, 151.12°E
打ち上げ日 Sep 19, 2022
運用期間 3.1 years
タイプ internet

技術仕様

分類 Payload
質量 305.00 kg
乾燥質量 290.00 kg
総質量 305.00 kg
長さ 0.20 m
直径 2.80 m
スパン 9.00 m
形状 Box + pan
製造者 SPXS
バスタイプ Starlink
フェーズステータス In Orbit
所有者/国 SPXS/US

大規模コンステレーション

Loading constellations...